Location: Staunton
(38.1490°N, 79.0720°W)
Time: 14:27:04
(UTC-04:00)

ISS - Pass Details

Date: 27 May 2017
Orbit: 402 x 408 km, 51.6° (Epoch: 29 May)

Event Time Altitude Azimuth Distance (km) Brightness Sun altitude
Rises 02:45:53 0° 317° (NW) 2,328 0.3 -26.7°
Reaches altitude 10° 02:48:13 10° 331° (NNW) 1,464 -0.6 -26.5°
Maximum altitude 02:51:00 25° 29° (NNE) 870 -1.5 -26.3°
Enters shadow 02:51:15 24° 37° (NE) 877 -1.5 -26.2°
Exits shadow 02:53:50 10° 88° (E) 1,483 -0.7 -26.0°
Sets 02:56:04 0° 101° (E) 2,311 0.2 -25.8°
